Weather History for Fort Knox, KY

Change the Weather History Date:

Tuesday, June 4, 2013

  Actual Average Record
Temperature  
Mean Temperature 65 °F -  
Max Temperature 78 °F 76 °F 92 °F (2011)
Min Temperature 53 °F 58 °F 53 °F (2003)
Growing Degree Days 15 (Base 50)    
Moisture  
Dew Point 55 °F    
Average Humidity 67    
Maximum Humidity 94    
Minimum Humidity 48    
Precipitation  
Precipitation 0.00 in - - ()
Sea Level Pressure  
Sea Level Pressure 30.06 in    
Wind  
Wind Speed 6 mph (ENE)    
Max Wind Speed 10 mph    
Max Gust Speed -    
Visibility 10 miles    
Events Rain    
Averages and records for this station are not official NWS values.
T = Trace of Precipitation, MM = Missing Value Source: NWS Daily Summary

Daily Weather History Graph

Daily Weather History Graph

Search for Another Location

Airport:

Trip Planner

Search our weather history database for the weather conditions in past years. The results will help you decide how hot, cold, wet, or windy it might be!

Date:

Astronomy

Jun. 04, 2013 Rise Set
Actual Time 6:22 AM EDT 9:02 PM EDT
Civil Twilight 5:51 AM EDT 9:33 PM EDT
Nautical Twilight 5:12 AM EDT 10:12 PM EDT
Astronomical Twilight 4:29 AM EDT 10:55 PM EDT
Moon 3:48 AM EDT (6/4) 5:34 PM EDT (6/4)
Length of Visible Light 15h 42m
Length of Day
14h 40m
Waning Crescent, 14% of the Moon is Illuminated
Jun 4
Waning Crescent
Jun 8
New
Jun 16
First Quarter
Jun 23
Full
Jun 30
Last Quarter

Hourly Weather History & Observations

Time (EDT) Temp. Dew Point Humidity Pressure Visibility Wind Dir Wind Speed Gust Speed Precip Events Conditions
12:58 AM 55.4 °F 51.6 °F 87% 30.05 in 10.0 mi NE 3.5 mph - N/A   Clear
1:58 AM 53.4 °F 51.6 °F 94% 30.05 in 10.0 mi ENE 2.3 mph - N/A   Clear
2:58 AM 53.1 °F 51.3 °F 94% 30.05 in 10.0 mi NNE 4.6 mph - N/A   Clear
3:58 AM 54.1 °F 50.5 °F 88% 30.05 in 10.0 mi North 5.8 mph - N/A   Clear
4:58 AM 54.3 °F 51.3 °F 89% 30.06 in 10.0 mi North 5.8 mph - N/A   Clear
5:58 AM 53.8 °F 51.3 °F 91% 30.06 in 10.0 mi North 5.8 mph - N/A   Clear
6:58 AM 54.1 °F 51.3 °F 90% 30.08 in 10.0 mi NE 4.6 mph - N/A   Clear
7:58 AM 58.3 °F 53.6 °F 84% 30.09 in 10.0 mi NE 5.8 mph - N/A   Mostly Cloudy
8:58 AM 62.2 °F 53.8 °F 74% 30.09 in 10.0 mi ENE 8.1 mph - N/A   Clear
9:58 AM 66.4 °F 55.8 °F 69% 30.08 in 10.0 mi East 9.2 mph - N/A   Clear
10:58 AM 69.8 °F 57.4 °F 65% 30.09 in 10.0 mi NE 5.8 mph - N/A   Clear
11:58 AM 72.1 °F 56.7 °F 58% 30.09 in 10.0 mi East 8.1 mph - N/A   Mostly Cloudy
12:58 PM 75.0 °F 56.7 °F 53% 30.08 in 10.0 mi East 8.1 mph - N/A   Scattered Clouds
1:01 PM 75.2 °F 57.2 °F 53% 30.08 in 10.0 mi East 10.4 mph - N/A Rain Light Rain
1:06 PM 75.2 °F 55.4 °F 50% 30.07 in 10.0 mi ESE 8.1 mph - N/A   Mostly Cloudy
1:07 PM 75.2 °F 55.4 °F 50% 30.07 in 10.0 mi SE 8.1 mph - N/A Rain Light Rain
1:15 PM 73.4 °F 55.4 °F 53% 30.07 in 10.0 mi East 10.4 mph - N/A   Mostly Cloudy
1:58 PM 75.0 °F 56.1 °F 52% 30.06 in 10.0 mi East 9.2 mph - 0.00 in   Mostly Cloudy
2:58 PM 77.4 °F 56.5 °F 48% 30.05 in 10.0 mi ENE 6.9 mph - N/A   Mostly Cloudy
3:58 PM 75.6 °F 56.1 °F 51% 30.05 in 10.0 mi East 8.1 mph - N/A   Overcast
4:58 PM 77.2 °F 56.8 °F 49% 30.04 in 10.0 mi ENE 8.1 mph - N/A   Partly Cloudy
5:58 PM 77.4 °F 56.1 °F 48% 30.03 in 10.0 mi Variable 4.6 mph - N/A   Clear
6:58 PM 75.2 °F 56.8 °F 53% 30.02 in 10.0 mi NE 6.9 mph - N/A   Clear
7:58 PM 73.9 °F 57.2 °F 56% 30.02 in 10.0 mi NE 3.5 mph - N/A   Clear
8:58 PM 70.7 °F 57.6 °F 63% 30.02 in 10.0 mi NE 6.9 mph - N/A   Clear
9:58 PM 68.7 °F 57.0 °F 66% 30.02 in 10.0 mi NE 4.6 mph - N/A   Clear
10:58 PM 67.6 °F 56.5 °F 67% 30.03 in 10.0 mi NE 4.6 mph - N/A   Clear
11:58 PM 66.2 °F 55.6 °F 69% 30.04 in 10.0 mi NE 3.5 mph - N/A   Clear